1276992026193,81.5078
1276992086193,81.9011
1276992146193,81.5283
1276992206193,81.5069
1276992266193,81.5312
1276992326193,81.5924
1276992386193,81.6821
1276992446193,81.3247
1276992506193,82.0317
1276992566193,81.7571
1276992626193,81.4446
1276992686193,81.6872
1276992746193,81.7223
1276992806193,82.1627
1276992866193,81.9560
1276992926193,81.5900
1276992986193,81.5844
1276993046193,81.4207
1276993106193,81.5735
1276993166193,81.4798
1276993226193,81.5047
1276993286193,82.3108
1276993346193,81.5162
1276993406193,81.7470
1276993466193,81.4465
1276993526193,81.5212
1276993586193,81.8128
1276993646193,81.5022
1276993706193,81.4997
1276993766193,81.3477
1276993826193,81.8622
1276993886193,81.7643
1276993946193,81.4445
1276994006193,81.7477
1276994066193,81.5895
1276994126193,81.6198
1276994186193,81.3693
1276994246193,81.7085
1276994306193,81.5778
1276994366193,81.3286
1276994426193,81.4717
1276994486193,81.5529
1276994546193,81.6242
1276994606193,81.6717
1276994666193,81.3882
1276994726193,81.6850
1276994786193,81.6268
1276994846193,81.2539
1276994906193,81.6001
1276994966193,81.2465
1276995026193,81.6779
1276995086193,81.4862
1276995146193,81.4572
1276995206193,81.3668
1276995266193,81.7833
1276995326193,81.8414
1276995386193,81.5162
1276995446193,81.2282
1276995506193,81.5582
1276995566193,81.3660
1276995626203,81.5759
1276995686203,81.7453
1276995746203,81.7341
1276995806203,81.5956
1276995866203,81.5362
1276995926203,81.1370
1276995986203,81.5523
1276996046203,81.7269
1276996106203,81.5561
1276996166203,81.5892
1276996226203,81.9648
1276996286203,81.4772
1276996346203,81.9124
1276996406203,81.7415
1276996466203,81.4128
1276996526203,81.4004
1276996586203,81.6216
1276996646203,81.2000
1276996706203,81.4608
1276996766203,81.1898
1276996826203,81.5508
1276996886203,81.0950
1276996946203,81.6275
1276997006203,81.5804
1276997066203,81.2342
1276997126203,81.7098
1276997186203,82.1864
1276997246203,81.5872
1276997306203,81.6211
1276997366203,81.3122
1276997426203,81.5798
1276997486203,81.8135
1276997546203,81.6160
1276997606203,81.3993
1276997666203,81.4271
1276997726203,81.4051
1276997786203,81.5325
1276997846203,82.1243
1276997906203,81.9345
1276997966203,82.1998
1276998026203,81.8430
1276998086203,81.2724
1276998146203,81.5123
1276998206203,81.8937
1276998266203,81.8297
1276998326203,81.7785
1276998386203,81.4981
1276998446203,81.8156
1276998506203,81.9071
1276998566203,82.0340
1276998626203,81.6434
1276998686203,81.7360
1276998746203,82.0211
1276998806203,82.1858
1276998866203,81.9668
1276998926203,82.0071
1276998986203,81.9763
1276999046203,82.2312
1276999106203,82.1132
1276999166203,81.3166
1276999226213,82.0734
1276999286213,81.8763
1276999346213,81.8591
1276999406213,81.8955
1276999466213,82.2565
1276999526213,81.7337
1276999586213,82.1836
1276999646213,82.3279
1276999706213,82.4924
1276999766213,82.1157
1276999826213,82.2391
1276999886213,82.4279
1276999946213,82.4323
1277000006213,82.3627
1277000066213,81.8892
1277000126213,82.0018
1277000186213,81.9999
1277000246213,81.9019
1277000306213,82.2533
1277000366213,82.2342
1277000426213,82.3159
1277000486213,82.2971
1277000546213,82.4225
1277000606213,82.2129
1277000666213,82.0008
1277000726213,81.9311
1277000786213,82.1736
1277000846213,82.0578
1277000906213,82.4017
1277000966213,81.7078
1277001026213,82.0179
1277001086213,82.1038
1277001146213,82.0282
1277001206213,81.7899
1277001266213,82.1555
1277001326213,82.0480
1277001386213,81.9382
1277001446213,82.2222
1277001506213,81.8079
1277001566213,81.9613
1277001626213,82.0345
1277001686213,82.2669
1277001746213,82.1033
1277001806213,81.6191
1277001866213,82.2132
1277001926213,82.2046
1277001986213,81.7647
1277002046213,81.8276
1277002106213,82.1623
1277002166213,82.1045
1277002226213,81.9600
1277002286213,82.0289
1277002346213,82.1265
1277002406213,81.8790
1277002466213,82.0616
1277002526213,81.9843
1277002586213,82.2582
1277002646213,81.8911
1277002706213,81.8033
1277002766213,82.1281
1277002826222,82.1955
1277002886222,82.1171
1277002946222,81.8456
1277003006222,81.7625
1277003066222,81.9442
1277003126222,82.0319
1277003186222,82.3636
1277003246222,82.1952
1277003306222,82.0015
1277003366222,82.2503
1277003426222,82.0894
1277003486222,82.3647
1277003546222,82.1558
1277003606222,81.6658
1277003666222,81.9948
1277003726222,82.1864
1277003786222,82.2037
1277003846222,81.8813
1277003906222,82.2144
1277003966222,82.3309
1277004026222,82.2128
1277004086222,81.7682
1277004146222,81.8545
1277004206222,81.7386
1277004266222,81.9070
1277004326222,81.9450
1277004386222,81.9688
1277004446222,81.8959
1277004506222,81.9365
1277004566222,82.2174
1277004626222,82.6652
1277004686222,81.8035
1277004746222,82.1500
1277004806222,81.7946
1277004866222,82.0043
1277004926222,81.9195
1277004986222,82.5050
1277005046222,81.8959
1277005106222,82.2756
1277005166222,81.9935
1277005226222,82.0870
1277005286222,81.8889
1277005346222,82.0411
1277005406222,81.8372
1277005466222,82.3508
1277005526222,82.1660
1277005586222,82.1272
1277005646222,81.7837
1277005706222,81.9133
1277005766222,82.0360
1277005826222,82.0328
1277005886222,82.0492
1277005946222,82.2937
1277006006222,82.1871
1277006066222,81.8211
1277006126222,81.5170
1277006186222,81.8557
1277006246222,81.9675
1277006306222,82.1231
1277006366222,81.5401
1277006426231,81.5197
1277006486231,81.9829
1277006546231,81.9849
1277006606231,81.7606
1277006666231,81.8599
1277006726231,81.6788
1277006786231,81.7841
1277006846231,82.1983
1277006906231,82.0922
1277006966231,82.5117
1277007026231,81.7248
1277007086231,81.6597
1277007146231,82.0795
1277007206231,81.7473
1277007266231,81.6110
1277007326231,81.8574
1277007386231,81.4248
1277007446231,82.0045
1277007506231,81.8334
1277007566231,82.0765
1277007626231,81.6037
1277007686231,81.3846
1277007746231,81.5340
1277007806231,81.5361
1277007866231,81.3073
1277007926231,82.2527
1277007986231,81.4544
1277008046231,82.2415
1277008106231,81.3804
1277008166231,81.4113
1277008226231,81.9409
1277008286231,81.4100
1277008346231,81.2908
1277008406231,81.9273
1277008466231,81.5413
1277008526231,81.9420
1277008586231,81.6592
1277008646231,81.7604
1277008706231,81.9300
1277008766231,81.2607
1277008826231,81.9252
1277008886231,81.2985
1277008946231,81.3144
1277009006231,81.7154
1277009066231,81.3274
1277009126231,81.4649
1277009186231,82.0272
1277009246231,81.6432
1277009306231,81.7209
1277009366231,81.8553
1277009426231,81.4694
1277009486231,81.8251
1277009546231,81.6076
1277009606231,80.9411
1277009666231,81.6167
1277009726231,81.5912
1277009786231,82.1746
1277009846231,81.8224
1277009906231,81.3565
1277009966231,81.7337
1277010026240,81.8593
1277010086240,81.3572
1277010146240,81.6228
1277010206240,81.6711
1277010266240,81.7224
1277010326240,81.3150
1277010386240,80.8892
1277010446240,81.7349
1277010506240,81.1526
1277010566240,81.6150
1277010626240,81.4893
1277010686240,81.6137
1277010746240,81.4195
1277010806240,82.1022
1277010866240,81.5220
1277010926240,81.8789
1277010986240,81.4578
1277011046240,81.5272
1277011106240,81.4960
1277011166240,81.2121
1277011226240,81.3123
1277011286240,81.2049
1277011346240,81.6046
1277011406240,81.5215
1277011466240,81.7816
1277011526240,81.0813
1277011586240,81.1730
1277011646240,81.6019
1277011706240,81.8272
1277011766240,81.7045
1277011826240,81.8124
1277011886240,81.9561
1277011946240,81.5305
1277012006240,81.3391
1277012066240,81.1217
1277012126240,80.9240
1277012186240,81.5469
1277012246240,81.3573
1277012306240,81.1737
1277012366240,81.1620
1277012426240,80.7689
1277012486240,81.6706
1277012546240,81.4609
1277012606240,81.1454
1277012666240,81.4488
1277012726240,81.3678
1277012786240,81.5096
1277012846240,81.5355
1277012906240,81.2824
1277012966240,81.6207
1277013026240,81.9055
1277013086240,81.6843
1277013146240,81.5849
1277013206240,81.5888
1277013266240,81.2063
1277013326240,81.6110
1277013386240,81.2487
1277013446240,81.4411
1277013506240,81.3497
1277013566240,81.5030
1277013626248,80.9242
1277013686248,81.3789
1277013746248,81.2438
1277013806248,80.9646
1277013866248,81.6654
1277013926248,81.1613
1277013986248,81.3672
1277014046248,81.2062
1277014106248,81.1828
1277014166248,81.2561
1277014226248,81.3153
1277014286248,81.1767
1277014346248,81.2216
1277014406248,81.4115
1277014466248,81.0719
1277014526248,81.5983
1277014586248,81.5741
1277014646248,81.5303
1277014706248,81.1697
1277014766248,80.7232
1277014826248,81.1467
1277014886248,81.1347
1277014946248,81.5493
1277015006248,81.2859
1277015066248,81.5471
1277015126248,81.5808
1277015186248,81.6849
1277015246248,81.8645
1277015306248,81.5461
1277015366248,81.3052
1277015426248,81.7876
1277015486248,81.1654
1277015546248,81.8726
1277015606248,81.0452
1277015666248,81.5546
1277015726248,82.1257
1277015786248,81.6365
1277015846248,81.8074
1277015906248,81.6243
1277015966248,81.2704
1277016026248,81.4382
1277016086248,81.3291
1277016146248,81.1099
1277016206248,81.4121
1277016266248,81.3005
1277016326248,81.2766
1277016386248,81.8064
1277016446248,81.8041
1277016506248,81.4965
1277016566248,81.4678
1277016626248,81.0755
1277016686248,81.3476
1277016746248,80.8913
1277016806248,81.3117
1277016866248,81.5613
1277016926248,81.3493
1277016986248,81.0682
1277017046248,81.4634
1277017106248,81.5969
1277017166248,81.8274
1277017226257,81.2786
1277017286257,81.3272
1277017346257,81.2443
1277017406257,81.0908
1277017466257,81.1227
1277017526257,81.3643
1277017586257,81.1290
1277017646257,81.2718
1277017706257,80.9805
1277017766257,81.2704
1277017826257,80.9844
1277017886257,81.2982
1277017946257,80.9844
1277018006257,81.5026
1277018066257,81.5686
1277018126257,80.8450
1277018186257,81.5690
1277018246257,81.0501
1277018306257,81.1098
1277018366257,81.0764
1277018426257,81.5426
1277018486257,82.0871
1277018546257,81.3136
1277018606257,81.3826
1277018666257,81.2393
1277018726257,81.1874
1277018786257,81.4683
1277018846257,81.0766
1277018906257,81.0616
1277018966257,81.4058
1277019026257,81.2712
1277019086257,81.0386
1277019146257,81.4318
1277019206257,80.9363
1277019266257,81.4602
1277019326257,81.9152
1277019386257,81.3706
1277019446257,80.6580
1277019506257,81.1706
1277019566257,81.3091
1277019626257,81.6072
1277019686257,81.3403
1277019746257,81.3215
1277019806257,81.2175
1277019866257,81.4734
1277019926257,81.0833
1277019986257,81.3919
1277020046257,81.1179
1277020106257,81.0869
1277020166257,81.2104
1277020226257,81.2572
1277020286257,81.6730
1277020346257,81.3323
1277020406257,81.3288
1277020466257,81.7649
1277020526257,81.1632
1277020586257,81.2325
1277020646257,81.1118
1277020706257,81.7152
1277020766257,81.9586
1277020826265,81.1628
1277020886265,81.1684
1277020946265,81.5169
1277021006265,81.1688
1277021066265,81.2920
1277021126265,81.2921
1277021186265,81.3211
1277021246265,81.3535
1277021306265,81.4609
1277021366265,81.0659
1277021426265,81.7608
1277021486265,81.9160
1277021546265,81.4746
1277021606265,81.8416
1277021666265,81.3289
1277021726265,81.8122
1277021786265,81.2885
1277021846265,81.3290
1277021906265,82.0624
1277021966265,81.6104
1277022026265,81.8762
1277022086265,81.6484
1277022146265,81.5394
1277022206265,81.5912
1277022266265,81.7545
1277022326265,81.9237
1277022386265,81.7244
1277022446265,81.5845
1277022506265,81.4114
1277022566265,81.7703
1277022626265,82.0131
1277022686265,81.7431
1277022746265,81.5817
1277022806265,81.7916
1277022866265,81.6346
1277022926265,82.0320
1277022986265,82.1324
1277023046265,81.4511
1277023106265,81.7397
1277023166265,81.7474
1277023226265,81.3823
1277023286265,81.4142
1277023346265,81.7375
1277023406265,81.7356
1277023466265,82.1255
1277023526265,81.8127
1277023586265,81.9253
1277023646265,81.5623
1277023706265,81.6374
1277023766265,81.6883
1277023826265,81.7746
1277023886265,81.9553
1277023946265,81.7988
1277024006265,82.5610
1277024066265,82.0738
1277024126265,81.6769
1277024186265,81.7025
1277024246265,81.7898
1277024306265,81.5689
1277024366265,81.9445
1277024426274,81.4739
1277024486274,82.0052
1277024546274,81.7324
1277024606274,81.7922
1277024666274,81.5790
1277024726274,81.7126
1277024786274,81.4546
1277024846274,81.9939
1277024906274,81.7769
1277024966274,81.7728
1277025026274,81.8181
1277025086274,81.8587
1277025146274,81.8894
1277025206274,82.0872
1277025266274,81.7825
1277025326274,81.6214
1277025386274,81.7648
1277025446274,81.7044
1277025506274,81.7546
1277025566274,81.9544
1277025626274,81.4380
1277025686274,81.9163
1277025746274,81.9603
1277025806274,81.4143
1277025866274,82.0229
1277025926274,81.7685
1277025986274,81.9225
1277026046274,82.1131
1277026106274,81.4798
1277026166274,81.7743
1277026226274,82.1733
1277026286274,82.0443
1277026346274,81.9065
1277026406274,82.1605
1277026466274,82.0169
1277026526274,81.8240
1277026586274,81.9315
1277026646274,81.7474
1277026706274,82.4078
1277026766274,82.2776
1277026826274,81.5324
1277026886274,81.4952
1277026946274,82.0259
1277027006274,81.8862
1277027066274,81.9403
1277027126274,81.6955
1277027186274,81.8025
1277027246274,82.0793
1277027306274,81.7031
1277027366274,81.9987
1277027426274,81.2283
1277027486274,82.1645
1277027546274,81.9099
1277027606274,81.5741
1277027666274,81.5144
1277027726274,82.0447
1277027786274,82.1498
1277027846274,81.9557
1277027906274,81.4825
1277027966274,82.5580
1277028026283,81.8229
1277028086283,81.8261
1277028146283,82.0333
1277028206283,82.1647
1277028266283,81.8026
1277028326283,81.4133
1277028386283,82.2973
1277028446283,81.5316
1277028506283,82.6439
1277028566283,81.8424
1277028626283,81.3983
1277028686283,82.0887
1277028746283,81.8700
1277028806283,82.1066
1277028866283,82.1157
1277028926283,81.7212
1277028986283,82.0645
1277029046283,81.8800
1277029106283,82.2639
1277029166283,82.1091
1277029226283,82.0363
1277029286283,81.9439
1277029346283,82.0307
1277029406283,82.0004
1277029466283,81.9903
1277029526283,81.6994
1277029586283,82.0295
1277029646283,82.2718
1277029706283,81.9726
1277029766283,82.1823
1277029826283,82.3926
1277029886283,82.0729
1277029946283,82.2915
1277030006283,81.9124
1277030066283,82.2243
1277030126283,82.1562
1277030186283,81.8742
1277030246283,82.1552
1277030306283,81.7532
1277030366283,82.1915
1277030426283,82.3715
1277030486283,82.3948
1277030546283,82.3110
1277030606283,81.9854
1277030666283,81.6865
1277030726283,82.1230
1277030786283,82.0984
1277030846283,82.0924
1277030906283,81.9658
1277030966283,81.8252
1277031026283,81.6608
1277031086283,82.0302
1277031146283,81.9751
1277031206283,82.1875
1277031266283,82.0636
1277031326283,82.0410
1277031386283,81.6187
1277031446283,82.2665
1277031506283,82.0131
1277031566283,82.0978
1277031626291,82.0328
1277031686291,82.3590
1277031746291,82.2638
1277031806291,82.3855
1277031866291,82.1686
1277031926291,82.1213
1277031986291,81.8567
1277032046291,81.8312
1277032106291,82.3507
1277032166291,82.0827
1277032226291,81.7094
1277032286291,81.7247
1277032346291,82.3005
1277032406291,82.2207
1277032466291,82.2615
1277032526291,82.0958
1277032586291,81.9769
1277032646291,81.6378
1277032706291,81.9187
1277032766291,82.1061
1277032826291,82.0476
1277032886291,82.0753
1277032946291,82.0681
1277033006291,81.8654
1277033066291,82.0491
1277033126291,81.7021
1277033186291,81.1064
1277033246291,82.0248
1277033306291,81.8995
1277033366291,82.0876
1277033426291,81.2635
1277033486291,82.2122
1277033546291,81.6139
1277033606291,81.6681
1277033666291,82.0583
1277033726291,81.5848
1277033786291,81.6566
1277033846291,81.6485
1277033906291,82.1061
1277033966291,82.0119
1277034026291,82.0080
1277034086291,81.8120
1277034146291,82.2245
1277034206291,81.6820
1277034266291,81.6217
1277034326291,82.0429
1277034386291,81.7642
1277034446291,82.1242
1277034506291,81.8793
1277034566291,81.7116
1277034626291,81.7895
1277034686291,81.7857
1277034746291,81.8752
1277034806291,81.4930
1277034866291,81.9854
1277034926291,81.8238
1277034986291,82.0403
1277035046291,81.8271
1277035106291,81.7331
1277035166291,82.1336
1277036426302,81.6156
1277036486302,81.8172
1277036546302,81.8905
1277036606302,82.5489
1277036666302,81.9423
1277036726302,82.3222
1277036786302,82.2036
1277036846302,82.2229
1277036906302,81.9328
1277036966302,82.2141
1277037026302,82.1454
1277037086302,81.8983
1277037146302,81.8906
1277037206302,82.0082
1277037266302,82.3744
1277037326302,82.2691
1277037386302,82.0538
1277037446302,82.8426
1277037506302,82.7604
1277037566302,82.2891
1277037626302,82.4292
1277037686302,82.3687
1277037746302,82.2472
1277037806302,82.7400
1277037866302,82.5657
1277037926302,82.4067
1277037986302,81.9518
1277038046302,82.3167
1277038106302,82.6251
1277038166302,82.5411
1277038226302,82.0964
1277038286302,82.7378
1277038346302,82.3040
1277038406302,82.5413
1277038466302,82.4217
1277038526302,82.4273
1277038586302,82.1665
1277038646302,82.5872
1277038706302,82.6981
1277038766302,82.4269
1277038826308,81.9868
1277038886308,82.5424
1277038946308,82.9176
1277039006308,82.2773
1277039066308,82.6279
1277039126308,82.1679
1277039186308,82.7785
1277039246308,82.6246
1277039306308,81.9672
1277039366308,82.6876
1277039426308,82.5206
1277039486308,82.4760
1277039546308,82.3034
1277039606308,82.3775
1277039666308,82.5052
1277039726308,82.0284
1277039786308,82.3657
1277039846308,82.7786
1277039906308,82.7772
1277039966308,82.2700
1277040026308,82.4141
1277040086308,82.3766
1277040146308,82.5687
1277040206308,82.9298
1277040266308,82.6179
1277040326308,83.0626
1277040386308,82.7710
1277040446308,82.4847
1277040506308,82.4356
1277040566308,82.8748
1277040626308,82.6162
1277040686308,82.4282
1277040746308,82.9444
1277040806308,82.6975
1277040866308,82.8085
1277040926308,82.8025
1277040986308,82.5383
1277041046308,82.3329
1277041106308,82.4534
1277041166308,82.7594
1277041226308,82.2004
1277041286308,82.9812
1277041346308,82.7346
1277041406308,82.5444
1277041466308,82.5079
1277041526308,82.8440
1277041586308,82.9304
1277041646308,82.8511
1277041706308,82.5381
1277041766308,83.0499
1277041826308,82.2315
1277041886308,82.6105
1277041946308,82.8780
1277042006308,82.8584
1277042066308,83.1130
1277042126308,82.6334
1277042186308,83.1687
1277042246308,82.8753
1277042306308,81.8828
1277042366308,83.0496
1277042426317,82.4616
1277042486317,82.7513
1277042546317,82.6719
1277042606317,82.2953
1277042666317,82.5095
1277042726317,82.5445
1277042786317,82.1832
1277042846317,83.0045
1277042906317,82.3528
1277042966317,82.7427
1277043026317,82.7842
1277043086317,82.7178
1277043146317,82.4853
1277043206317,82.7826
1277043266317,82.3112
1277043326317,82.4734
1277043386317,82.4769
1277043446317,82.6676
1277043506317,82.9965
1277043566317,82.4622
1277043626317,82.8053
1277043686317,82.7674
1277043746317,82.7991
1277043806317,82.5013
1277043866317,82.3305
1277043926317,82.1600
1277043986317,82.5121
1277044046317,82.3382
1277044106317,82.5994
1277044166317,82.4050
1277044226317,82.3955
1277044286317,82.5828
1277044346317,82.6080
1277044406317,82.3742
1277044466317,82.4712
1277044526317,82.0292
1277044586317,81.9330
1277044646317,82.5630
1277044706317,82.6195
1277044766317,82.3084
1277044826317,82.4927
1277044886317,82.4741
1277044946317,82.4845
1277045006317,82.5959
1277045066317,82.7688
1277045126317,82.1636
1277045186317,82.2800
1277045246317,82.6703
1277045306317,82.3399
1277045366317,82.4123
1277045426317,82.3544
1277045486317,82.5652
1277045546317,82.4439
1277045606317,82.1596
1277045666317,82.6963
1277045726317,82.6157
1277045786317,82.6094
1277045846317,82.6342
1277045906317,82.3910
1277045966317,82.4584
1277046026325,82.4283
1277046086325,82.0993
1277046146325,82.5498
1277046206325,81.5924
1277046266325,82.5771
1277046326325,81.9595
1277046386325,82.7898
1277046446325,82.4993
1277046506325,82.0290
1277046566325,82.7949
1277046626325,82.4091
1277046686325,82.1665
1277046746325,82.2020
1277046806325,82.3598
1277046866325,82.5617
1277046926325,82.0159
1277046986325,82.6553
1277047046325,82.3364
1277047106325,82.0218
1277047166325,82.3646
1277047226325,82.8857
1277047286325,82.1880
1277047346325,82.5640
1277047406325,82.4481
1277047466325,82.1545
1277047526325,82.4668
1277047586325,82.5162
1277047646325,82.5266
1277047706325,82.0296
1277047766325,82.3861
1277047826325,82.3617
1277047886325,82.1648
1277047946325,82.5733
1277048006325,82.2612
1277048066325,81.8450
1277048126325,82.4606
1277048186325,82.4921
1277048246325,82.5050
1277048306325,82.1274
1277048366325,82.8326
1277048426325,82.4731
1277048486325,82.0569
1277048546325,82.7894
1277048606325,82.3083
1277048666325,82.7962
1277048726325,82.6598
1277048786325,82.3159
1277048846325,82.1886
1277048906325,82.6230
1277048966325,82.6051
1277049026325,82.4638
1277049086325,83.0245
1277049146325,82.3086
1277049206325,82.2035
1277049266325,82.1675
1277049326325,82.1088
1277049386325,81.9507
1277049446325,82.4346
1277049506325,82.7599
1277049566325,82.0406
1277049626334,81.8798
1277049686334,82.1699
1277049746334,82.3305
1277049806334,82.1654
1277049866334,82.3516
1277049926334,82.1047
1277049986334,82.5362
1277050046334,82.2340
1277050106334,82.5361
1277050166334,81.9755
1277050226334,82.2625
1277050286334,81.5140
1277050346334,81.8328
1277050406334,82.4533
1277050466334,82.1972
1277050526334,82.2876
1277050586334,82.2110
1277050646334,82.3554
1277050706334,82.2117
1277050766334,82.1563
1277050826334,82.5413
1277050886334,82.1940
1277050946334,82.1148
1277051006334,82.2064
1277051066334,82.2182
1277051126334,82.0880
1277051186334,82.2456
1277051246334,82.2686
1277051306334,82.1877
1277051366334,82.3057
1277051426334,82.0295
1277051486334,82.0873
1277051546334,82.3975
1277051606334,81.9304
1277051666334,82.0934
1277051726334,82.5843
1277051786334,82.2029
1277051846334,82.1664
1277051906334,82.5642
1277051966334,82.5404
1277052026334,82.1921
1277052086334,82.8242
1277052146334,82.4613
1277052206334,82.2785
1277052266334,82.2890
1277052326334,82.2110
1277052386334,82.4309
1277052446334,82.6285
1277052506334,82.1796
1277052566334,82.2797
1277052626334,82.5800
1277052686334,82.4251
1277052746334,82.2451
1277052806334,82.0674
1277052866334,82.3561
1277052926334,81.7611
1277052986334,82.2286
1277053046334,82.4633
1277053106334,82.5381
1277053166334,82.2899
1277053226343,82.2760
1277053286343,82.3176
1277053346343,82.1563
1277053406343,82.6806
1277053466343,82.7074
1277053526343,82.5995
1277053586343,82.7511
1277053646343,82.5943
1277053706343,82.6840
1277053766343,82.5453
1277053826343,82.2620
1277053886343,82.4980
1277053946343,82.4745
1277054006343,82.8860
1277054066343,82.3439
1277054126343,82.5467
1277054186343,82.3410
1277054246343,82.7032
1277054306343,82.3220
1277054366343,82.3372
1277054426343,81.9470
1277054486343,82.7267
1277054546343,82.2960
1277054606343,82.4457
1277054666343,82.7227
1277054726343,82.7706
1277054786343,82.5123
1277054846343,82.3449
1277054906343,82.6406
1277054966343,82.1558
1277055026343,82.6265
1277055086343,82.7668
1277055146343,82.6475
1277055206343,82.8288
1277055266343,82.7697
1277055326343,83.0302
1277055386343,82.5810
1277055446343,82.5812
1277055506343,82.4217
1277055566343,83.2116
1277055626343,83.0738
1277055686343,83.2201
1277055746343,82.8459
1277055806343,83.0202
1277055866343,82.8232
1277055926343,82.7979
1277055986343,82.7098
1277056046343,83.2044
1277056106343,82.9230
1277056166343,83.1821
1277056226343,83.2719
1277056286343,82.8596
1277056346343,82.4545
1277056406343,82.5540
1277056466343,82.8051
1277056526343,83.2520
1277056586343,82.6785
1277056646343,82.6578
1277056706343,82.6727
1277056766343,83.1846
1277056826353,82.7173
1277056886353,82.6839
1277056946353,82.7288
1277057006353,83.3042
1277057066353,82.8170
1277057126353,82.6799
1277057186353,82.2517
1277057246353,83.2024
1277057306353,83.1240
1277057366353,82.8085
1277057426353,83.0303
1277057486353,82.6260
1277057546353,82.8436
1277057606353,83.1739
1277057666353,83.0641
1277057726353,83.0437
1277057786353,82.6250
1277057846353,83.0768
1277057906353,82.8303
1277057966353,82.4846
1277058026353,82.9034
1277058086353,82.7063
1277058146353,83.0036
1277058206353,83.2526
1277058266353,83.0545
1277058326353,82.9479
1277058386353,83.5699
1277058446353,83.0770
1277058506353,82.8912
1277058566353,83.3104